When you browse on this site, cookies collect data to enhance your experience and personalize the content and advertising you see.
Visit our Privacy Policy to learn more. By continuing to use the site, you agree to this use of cookies and data.
  • In Netherlands
  • List of Countries
  • For 7 days
  • Water Temperature
  • Weather Map
  • Weather Widgets
  • user-avatar
    Login

    Hourly Weather Korobchino

    Today, 30 May, Saturday

    Time Temperature Precipitation Wind Pressure Humidity
    00:00 +14°C° 0 mm 5 mps 739 mmHg 93%
    01:00 +14°C° 0 mm 5 mps 739 mmHg 93%
    02:00 +14°C° 0 mm 5 mps 739 mmHg 93%
    03:00 +14°C° 0.4 mm 5 mps 738 mmHg 93%
    04:00 +14°C° 0.4 mm 5 mps 738 mmHg 94%
    05:00 +14°C° 0.4 mm 5 mps 737 mmHg 94%
    06:00 +14°C° 2.3 mm 6 mps 737 mmHg 94%
    07:00 +14°C° 2.3 mm 7 mps 737 mmHg 95%
    08:00 +14°C° 0 mm 7 mps 737 mmHg 96%
    09:00 +15°C° 0.2 mm 7 mps 736 mmHg 95%
    10:00 +16°C° 0.2 mm 7 mps 736 mmHg 94%
    11:00 +16°C° 0.2 mm 7 mps 735 mmHg 93%
    12:00 +16°C° 0.5 mm 8 mps 735 mmHg 93%
    13:00 +17°C° 0.5 mm 8 mps 735 mmHg 93%
    14:00 +16°C° 0 mm 8 mps 735 mmHg 91%
    15:00 +16°C° 2.4 mm 8 mps 735 mmHg 92%
    16:00 +16°C° 2.4 mm 8 mps 734 mmHg 93%
    17:00 +16°C° 2.4 mm 8 mps 734 mmHg 94%
    18:00 +16°C° 8.7 mm 7 mps 734 mmHg 95%
    19:00 +15°C° 8.7 mm 6 mps 734 mmHg 96%
    20:00 +15°C° 8.7 mm 5 mps 734 mmHg 97%
    21:00 +15°C° 3.2 mm 5 mps 734 mmHg 97%
    22:00 +14°C° 3.2 mm 5 mps 734 mmHg 97%
    23:00 +14°C° 3.2 mm 4 mps 734 mmHg 98%

    Tomorrow, 31 May, Sunday

    Time Temperature Precipitation Wind Pressure Humidity
    00:00 +14°C° 1.6 mm 4 mps 735 mmHg 97%
    01:00 +14°C° 1.6 mm 4 mps 735 mmHg 97%
    02:00 +13°C° 1.6 mm 4 mps 735 mmHg 97%
    03:00 +13°C° 0.6 mm 3 mps 735 mmHg 97%
    04:00 +13°C° 0.6 mm 3 mps 735 mmHg 97%
    05:00 +12°C° 0.6 mm 3 mps 735 mmHg 97%
    06:00 +13°C° 0.3 mm 3 mps 736 mmHg 95%
    07:00 +14°C° 0.3 mm 3 mps 736 mmHg 92%
    08:00 +15°C° 0.3 mm 4 mps 737 mmHg 90%
    09:00 +14°C° 0.6 mm 5 mps 737 mmHg 90%
    10:00 +13°C° 0.6 mm 6 mps 737 mmHg 91%
    11:00 +12°C° 0.6 mm 8 mps 738 mmHg 91%
    12:00 +11°C° 0.3 mm 8 mps 738 mmHg 90%
    13:00 +11°C° 0.3 mm 8 mps 738 mmHg 89%
    14:00 +11°C° 0.3 mm 8 mps 739 mmHg 88%
    15:00 +11°C° 0 mm 7 mps 739 mmHg 85%
    16:00 +12°C° 0 mm 7 mps 739 mmHg 81%
    17:00 +13°C° 0 mm 6 mps 739 mmHg 78%
    18:00 +11°C° 0.1 mm 6 mps 740 mmHg 80%
    19:00 +10°C° 0.1 mm 5 mps 740 mmHg 81%
    20:00 +9°C° 0.1 mm 5 mps 741 mmHg 83%
    21:00 +9°C° 0 mm 5 mps 741 mmHg 83%
    22:00 +8°C° 0 mm 5 mps 741 mmHg 82%
    23:00 +7°C° 0 mm 5 mps 741 mmHg 82%

    Day after tomorrow, 1 June, Monday

    Time Temperature Precipitation Wind Pressure Humidity
    00:00 +6°C° 0 mm 5 mps 742 mmHg 82%
    01:00 +6°C° 0 mm 5 mps 742 mmHg 82%
    02:00 +5°C° 0 mm 5 mps 742 mmHg 82%
    03:00 +5°C° 0 mm 5 mps 742 mmHg 82%
    04:00 +3°C° 0 mm 5 mps 742 mmHg 83%
    05:00 +3°C° 0 mm 6 mps 742 mmHg 83%
    06:00 +4°C° 0 mm 6 mps 742 mmHg 79%
    07:00 +7°C° 0 mm 6 mps 742 mmHg 76%
    08:00 +8°C° 0 mm 7 mps 742 mmHg 72%
    09:00 +8°C° 0.1 mm 7 mps 742 mmHg 72%
    10:00 +9°C° 0.1 mm 7 mps 742 mmHg 72%
    11:00 +9°C° 0.1 mm 7 mps 742 mmHg 72%
    12:00 +9°C° 0.3 mm 7 mps 742 mmHg 74%
    13:00 +9°C° 0.3 mm 7 mps 742 mmHg 77%
    14:00 +9°C° 0.3 mm 7 mps 742 mmHg 79%
    15:00 +9°C° 0 mm 7 mps 742 mmHg 80%
    16:00 +9°C° 0 mm 6 mps 742 mmHg 80%
    17:00 +8°C° 0 mm 6 mps 742 mmHg 81%
    18:00 +8°C° 0 mm 6 mps 742 mmHg 82%
    19:00 +8°C° 0 mm 5 mps 742 mmHg 83%
    20:00 +7°C° 0 mm 4 mps 742 mmHg 84%
    21:00 +7°C° 0 mm 5 mps 742 mmHg 87%
    22:00 +6°C° 0 mm 5 mps 742 mmHg 89%
    23:00 +6°C° 0 mm 5 mps 741 mmHg 91%

    2 June, Tuesday

    Time Temperature Precipitation Wind Pressure Humidity
    00:00 +6°C° 0 mm 5 mps 741 mmHg 89%
    01:00 +7°C° 0 mm 6 mps 741 mmHg 88%
    02:00 +7°C° 0 mm 6 mps 740 mmHg 86%
    03:00 +6°C° 0 mm 7 mps 740 mmHg 86%
    04:00 +6°C° 0 mm 7 mps 739 mmHg 86%
    05:00 +5°C° 0 mm 7 mps 739 mmHg 86%
    06:00 +6°C° 0.4 mm 8 mps 739 mmHg 86%
    07:00 +6°C° 0.4 mm 9 mps 739 mmHg 86%
    08:00 +7°C° 0.4 mm 10 mps 738 mmHg 85%
    09:00 +6°C° 2.3 mm 10 mps 738 mmHg 88%
    10:00 +6°C° 2.3 mm 10 mps 738 mmHg 90%
    11:00 +5°C° 2.3 mm 10 mps 738 mmHg 93%
    12:00 +6°C° 0.6 mm 10 mps 738 mmHg 93%
    13:00 +6°C° 0.6 mm 10 mps 737 mmHg 92%
    14:00 +7°C° 0.6 mm 9 mps 737 mmHg 92%
    15:00 +7°C° 0.1 mm 9 mps 737 mmHg 92%
    16:00 +7°C° 0.1 mm 9 mps 737 mmHg 91%
    17:00 +9°C° 0.1 mm 8 mps 737 mmHg 91%
    18:00 +9°C° 1.4 mm 8 mps 737 mmHg 93%
    19:00 +9°C° 1.4 mm 7 mps 737 mmHg 94%
    20:00 +8°C° 1.4 mm 7 mps 737 mmHg 95%
    21:00 +9°C° 0.5 mm 6 mps 737 mmHg 95%
    22:00 +9°C° 0.5 mm 6 mps 737 mmHg 95%
    23:00 +9°C° 0.5 mm 6 mps 737 mmHg 95%

    3 June, Wednesday

    Time Temperature Precipitation Wind Pressure Humidity
    00:00 +9°C° 0.2 mm 6 mps 736 mmHg 95%
    01:00 +9°C° 0.2 mm 5 mps 736 mmHg 95%
    02:00 +9°C° 0.2 mm 5 mps 736 mmHg 96%
    03:00 +10°C° 0.2 mm 5 mps 736 mmHg 96%
    04:00 +11°C° 0.2 mm 4 mps 736 mmHg 97%
    05:00 +11°C° 0.2 mm 4 mps 736 mmHg 97%
    06:00 +12°C° 0.1 mm 3 mps 737 mmHg 94%
    07:00 +12°C° 0.1 mm 3 mps 737 mmHg 90%
    08:00 +13°C° 0.1 mm 3 mps 737 mmHg 86%
    09:00 +14°C° 0 mm 3 mps 737 mmHg 80%
    10:00 +16°C° 0 mm 3 mps 738 mmHg 74%
    11:00 +17°C° 0 mm 3 mps 738 mmHg 68%
    12:00 +17°C° 0 mm 3 mps 738 mmHg 66%
    13:00 +18°C° 0 mm 3 mps 738 mmHg 64%
    14:00 +18°C° 0 mm 2 mps 738 mmHg 61%
    15:00 +18°C° 0 mm 2 mps 738 mmHg 62%
    16:00 +18°C° 0 mm 2 mps 737 mmHg 63%
    17:00 +19°C° 0 mm 1 mps 737 mmHg 64%
    18:00 +16°C° 0 mm 1 mps 737 mmHg 70%
    19:00 +15°C° 0 mm 1 mps 737 mmHg 76%
    20:00 +13°C° 0 mm 1 mps 737 mmHg 82%
    21:00 +13°C° 0 mm 1 mps 737 mmHg 84%
    22:00 +11°C° 0 mm 0 mps 737 mmHg 86%
    23:00 +10°C° 0 mm 0 mps 737 mmHg 88%

    4 June, Thursday

    Time Temperature Precipitation Wind Pressure Humidity
    00:00 +10°C° 0 mm 0 mps 737 mmHg 88%
    01:00 +10°C° 0 mm 0 mps 737 mmHg 89%
    02:00 +9°C° 0 mm 0 mps 737 mmHg 90%
    03:00 +10°C° 0 mm 0 mps 737 mmHg 90%
    04:00 +10°C° 0 mm 0 mps 736 mmHg 90%
    05:00 +12°C° 0 mm 1 mps 736 mmHg 90%
    06:00 +13°C° 0 mm 1 mps 736 mmHg 86%
    07:00 +14°C° 0 mm 1 mps 736 mmHg 83%
    08:00 +15°C° 0 mm 2 mps 736 mmHg 80%
    09:00 +16°C° 0 mm 2 mps 736 mmHg 75%
    10:00 +17°C° 0 mm 2 mps 736 mmHg 70%
    11:00 +18°C° 0 mm 3 mps 736 mmHg 65%
    12:00 +18°C° 0.1 mm 3 mps 736 mmHg 66%
    13:00 +18°C° 0.1 mm 3 mps 736 mmHg 67%
    14:00 +18°C° 0.1 mm 3 mps 736 mmHg 67%
    15:00 +18°C° 0.2 mm 3 mps 736 mmHg 69%
    16:00 +18°C° 0.2 mm 2 mps 736 mmHg 70%
    17:00 +18°C° 0.2 mm 2 mps 736 mmHg 71%
    18:00 +16°C° 0.1 mm 1 mps 736 mmHg 76%
    19:00 +15°C° 0.1 mm 1 mps 736 mmHg 82%
    20:00 +13°C° 0.1 mm 1 mps 735 mmHg 88%
    21:00 +12°C° 0 mm 1 mps 735 mmHg 89%
    22:00 +12°C° 0 mm 1 mps 736 mmHg 89%
    23:00 +11°C° 0 mm 1 mps 736 mmHg 90%
    Show more